Tracking 29892 objects as of 21-Nov-2024
HD Live streaming from Space Station
objects crossing your sky now

STARLINK-30261

Track STARLINK-30261 now!
10-day predictions
STARLINK-30261 is classified as:


NORAD ID: 57523
Int'l Code: 2023-115C
Perigee: 565.2 km
Apogee: 567.3 km
Inclination: 43.0 °
Period: 95.8 minutes
Semi major axis: 6937 km
RCS: Unknown
Launch date: August 8, 2023
Source: United States (US)
Launch site: AIR FORCE WESTERN TEST RANGE (AFWTR)
Your satellite tracking list
Your tracking list is empty




NASA's NSSDC Master Catalog

Two Line Element Set (TLE):
1 57523U 23115C   24325.71417917 -.00000873  00000-0 -49519-4 0  9999
2 57523  43.0061  60.3989 0001520 280.1530  79.9140 15.02536067 72015
Source of the keplerian elements: AFSPC